User: anonymous   Login
Location: Unspecified
(0.0000°N, 0.0000°E)
Time: 00:47:43
(UTC+00:00)
Language:

STARLINK-11095 [DTC] - Orbit

View from above orbital plane
View from above orbital plane
View from above satellite
View from above satellite

Ground track
Ground track

The orbit is defined by the following mean orbital elements,

1 59720U          26145.46134117 +.00000000 +00000-0 +77569-4 0 00009
2 59720  53.1582 307.5460 0001101 108.7859 251.3279 15.69666370    03
Epoch (UTC): 25 May 2026 11:04:19
Eccentricity: 0.0001101
inclination: 53.1582°
perigee height: 359 km
apogee height: 361 km
right ascension of ascending node: 307.5460°
argument of perigee: 108.7859°
revolutions per day: 15.69666370
mean anomaly at epoch: 251.3279°

The dashed part of the orbit path shows where the satellite is in the earth's shadow,  

DLR